Regional Weather Roundup
Issued by NWS Upton, NY

Current Version | Previous Version | Text Only | Print | Product List | Glossary On
Versions: 1 2 3 4 5 6 7 8 9 10 11 12 13 14 15 16 17 18 19 20 21 22 23 24 25 26 27 28 29 30 31 32 33 34 35 36 37 38 39 40 41 42 43 44 45 46 47 48 49 50
675 ASUS41 KOKX 251300 RWROKX REGIONAL WEATHER ROUNDUP NATIONAL WEATHER SERVICE NEW YORK NY 900 AM EDT THU AUG 25 2016 NOTE: "FAIR" INDICATES FEW OR NO CLOUDS BELOW 12,000 FEET WITH NO SIGNIFICANT WEATHER AND/OR OBSTRUCTIONS TO VISIBILITY. NYZ071-072-176-178-NJZ106-104-251400- NEW YORK CITY METRO AREA CITY SKY/WX TMP DP RH WIND PRES REMARKS Central Park N/A 75 64 69 MISG N/A LaGuardia APRT MOSUNNY 77 64 64 SW12G20 30.11F Kennedy INTL PTSUNNY 74 66 76 SW8 30.14F Newark/Liberty MOSUNNY 77 64 64 S10 30.11F Bronx Bot Gard N/A 75 63 64 W3 30.14F Wall St Helipt PTSUNNY 73 66 78 W6 30.14S Teterboro SUNNY 74 63 68 S7 30.11 $$ NYZ177-179-078>081-251400- LONG ISLAND NEW YORK CITY SKY/WX TMP DP RH WIND PRES REMARKS Farmingdale SUNNY 75 65 70 SW10 30.14F MacArthur/ISP MOSUNNY 76 65 68 SW12 30.14S Shirley SUNNY 75 66 73 SW10 30.15S Riverhead NOT AVBL Westhampton SUNNY 75 65 70 SW10 30.16F Southampton N/A 73 68 83 SW7 30.11F Bridgehampton N/A 72 66 83 S2 30.14S East Hampton FAIR 75 65 71 SW10 30.14S Montauk N/A 75 67 76 SW8 30.15F $$ NYZ052-065-067-251400- HUDSON VALLEY CITY SKY/WX TMP DP RH WIND PRES REMARKS White Plains MOSUNNY 74 65 73 S5 30.13S Newburgh MOSUNNY 72 66 83 W9 30.13F Montgomery SUNNY 72 65 78 S9 30.10F Poughkeepsie SUNNY 75 64 68 SW6 30.09F Albany CLOUDY 71 63 75 S12G17 30.04 $$ NJZ001-105-106-008-010-013-015-019>022-104-251400- NEW JERSEY CITY SKY/WX TMP DP RH WIND PRES REMARKS Newark/Liberty MOSUNNY 77 64 64 S10 30.11F Teterboro SUNNY 74 63 68 S7 30.11 Caldwell SUNNY 72 64 76 SW6 30.12F Morristown MOSUNNY 72 64 78 SW7 30.12F Somerville CLOUDY 71 64 78 S5 30.10F Linden FAIR 76 61 59 CALM 30.14F Sussex MOSUNNY 69 65 86 VRB3 30.11F Abdover N/A 72 66 81 VRB3 30.12F Trenton CLOUDY 73 62 68 S9 30.12F Millville CLOUDY 76 71 85 VRB5 30.14F Atlantic City MOSUNNY 76 61 59 SW8 30.15S Wrightstown MOSUNNY 75 62 65 S9 30.11F Toms River SUNNY 76 63 64 SW7 30.14F Belmar MOSUNNY 75 63 66 SW7 30.15F $$ PAZ047>061-062-071-251400- EASTERN PENNSYLVANIA CITY SKY/WX TMP DP RH WIND PRES REMARKS Philadelphia CLOUDY 75 65 70 S10 30.12F Allentown MOSUNNY 73 65 75 S8 30.11 Scranton CLOUDY 72 64 76 S3 30.09S $$ CTZ002-004>006-009-010-012-RIZ004-006-007-MAZ004-011-015-251400- SOUTHERN NEW ENGLAND IN CT CITY SKY/WX TMP DP RH WIND PRES REMARKS Bradley INTL PTSUNNY 74 63 68 S12 30.10 Hartford SUNNY 77 64 64 SW7 30.11F Danbury SUNNY 71 63 75 SW7 30.14F Wtrbury/Oxford MOSUNNY 70 63 78 SW6 30.16S Bridgeport SUNNY 76 65 68 SW12 30.13S Meriden SUNNY 76 64 66 S6 30.12F New Haven MOSUNNY 74 66 76 VRB7 30.14R Chester FAIR 73 66 78 VRB7 30.14F Groton SUNNY 76 67 73 SW12 30.13S Wilimantic SUNNY 73 66 78 SW8 30.13F IN RI CITY SKY/WX TMP DP RH WIND PRES REMARKS Providence PTSUNNY 76 64 66 SW10 30.12 Block Island SUNNY 74 68 81 SW15 N/A Westerly SUNNY 76 64 66 SW8 30.14F IN MA CITY SKY/WX TMP DP RH WIND PRES REMARKS Boston MOSUNNY 76 65 68 SW14 30.09F Worcester SUNNY 71 62 73 SW15 30.11F Westfield SUNNY 72 65 78 S10 30.08F Provincetown SUNNY 74 68 81 SW13 30.13S Nantucket SUNNY 73 66 78 S13 30.16S $$ ANZ330-335-338-340-345-350-353-355-251400- COASTAL MARINE OBSERVATIONS STATION/POSITION TIME SKY/WX TEMP WIND PRES VSBY WAVE AIR SEA DIR/SP/G HT/PER (UTC) (F) (DEG/KT/KT) (MB) (MI) (FT/S) NY HARB ENTRANCE 1150 73 74 230/ 12/ 14 1020.6 3/11 20S FIRE ISLAND 1150 74 74 230/ 12/ 14 1020.8 3/11 GREAT SOUTH BAY 1215 74 78 240/ 12/ 14 N/A 23 SSW MONTAUK P 1150 74 74 230/ 12/ 16 1021.2 3/10 15 E BARNEGAT LI 1200 74 N/A 3/11 HUDSON CANYON 1150 76 77 1021.3 2/10 KINGS POINT 1200 72 75 1020.0 EXECUTION ROCKS 1200 77 180/ 10/ 12 N/A CENTRAL LI SOUND 1200 72 75 220/ 14/ 16 N/A 2/ 3 EASTERN LI SOUND 1200 75 69 250/ 10/ 14 N/A ROBBINS REEF 1206 72 240/ 9/ 13 1019.5 $$ >>>>>>>>>>>>>>>>>>>>>>>>>>>> KEY <<<<<<<<<<<<<<<<<<<<<<<<<<< > < > SKY/WX - Sky Condition/Present Weather < > TMP - Temperature in Fahrenheit < > DP - Dew Point in Fahrenheit < > RH - Relative Humidity in Percent < > WIND - Direction (from) and Speed in MPH < > PRES - Mean Sea Level Pressure (inches of Hg) < > WCI - Wind Chill Index < > VSB - VISIBILITY IN MILES < > HX - HEAT INDEX < > TC - TEMPERATURE IN CELSIUS < > VRB - VARIABLE WIND DIRECTION < > < >>>>>>>>>>>>>>>>>>>>>>>>>>>> KEY <<<<<<<<<<<<<<<<<<<<<<<<<<<

USA.gov is the U.S. government's official web portal to all federal, state and local government web resources and services.